This demonstration page uses our WeatherBlox Daily Observations layout. Learn more.

Left ArrowRight Arrow

Hourly Observations for August 13, 2015

Temp ( °F °C ) Dew Point ( °F °C ) Humidity (%) Winds ( mph kmh ) Pressure ( in mb ) Visibility ( mi km ) Precip ( " mm )
12:53 am 00:53 Clear 59 15 58 14.4 96 96 N N/A 30.12 1020 10 16 N/A
1:53 am 01:53 Clear 59 15 57 13.9 93 93 N N/A 30.11 1020 10 16 N/A
2:53 am 02:53 Clear 58 14.4 57 13.9 97 97 N N/A 30.11 1020 10 16 N/A
3:53 am 03:53 Clear 57 13.9 56 13.3 96 96 N N/A 30.13 1020 7 11 N/A
4:53 am 04:53 Clear 56 13.3 55 12.8 97 97 N N/A 30.14 1021 10 16 N/A
5:53 am 05:53 Clear 56 13.3 55 12.8 97 97 N N/A 30.14 1021 10 16 N/A
6:53 am 06:53 Sunny 56 13.3 55 12.8 97 97 N N/A 30.16 1021 10 16 N/A
7:53 am 07:53 Sunny 59 15 57 13.9 93 93 N N/A 30.16 1022 10 16 N/A
8:53 am 08:53 Sunny 65 18.3 60 15.6 84 84 N N/A 30.18 1022 10 16 N/A
9:53 am 09:53 Sunny 70 21.1 62 16.7 76 76 N N/A 30.18 1022 10 16 N/A
10:53 am 10:53 Sunny 75 23.9 62 16.7 64 64 N N/A 30.17 1022 10 16 N/A
11:53 am 11:53 Mostly Sunny 76 24.4 57 13.9 52 52 N N/A 30.16 1022 10 16 N/A
12:53 pm 12:53 Mostly Sunny 78 25.6 59 15 52 52 W 3 6 30.15 1021 10 16 N/A
1:53 pm 13:53 Sunny 79 26.1 58 14.4 49 49 N N/A 30.14 1021 10 16 N/A
2:53 pm 14:53 Sunny 81 27.2 61 16.1 51 51 VRB 3 6 30.14 1021 10 16 N/A
3:53 pm 15:53 Sunny 82 27.8 59 15 46 46 VRB 3 6 30.13 1020 10 16 N/A
4:53 pm 16:53 Sunny 81 27.2 61 16.1 51 51 N N/A 30.13 1020 10 16 N/A
5:53 pm 17:53 Sunny 81 27.2 61 16.1 51 51 NNW 7 11 30.12 1020 10 16 N/A
6:53 pm 18:53 Sunny 81 27.2 61 16.1 51 51 NNW 5 7 30.12 1020 10 16 N/A
7:53 pm 19:53 Sunny 78 25.6 63 17.2 60 60 N 3 6 30.12 1020 10 16 N/A
8:53 pm 20:53 Clear 68 20 64 17.8 87 87 N N/A 30.13 1020 10 16 N/A
9:53 pm 21:53 Clear 66 18.9 63 17.2 90 90 N N/A 30.12 1020 10 16 N/A
10:53 pm 22:53 Clear 65 18.3 62 16.7 90 90 N N/A 30.14 1021 10 16 N/A
11:53 pm 23:53 Clear 63 17.2 62 16.7 97 97 N N/A 30.15 1021 10 16 N/A

Powered by AerisWeather